Tracking 18942 objects as of 18-Jan-2018
HD Live streaming from Space Station
objects crossing your sky now

FENGYUN 1C DEB

Track FENGYUN 1C DEB now!
10-day predictions


NORAD ID: 30398
Int'l Code: 1999-025ADM
Perigee: 854.9 km
Apogee: 1,119.4 km
Inclination: 99.7 °
Period: 104.7 minutes
Semi major axis: 7358 km
RCS: 0.0135 m2 (small)
Launch date: May 10, 1999
Source: People's Republic of China (PRC)
Launch site: Taiyaun Space Center, China (TSC)

Note: This is SATELLITE DEBRIS
aabbcc
Your satellite tracking list
Your tracking list is empty




NASA's NSSDC Master Catalog

Two Line Element Set (TLE):
1 30398U 99025ADM 18017.84960314  .00000153  00000-0  18527-3 0  9995
2 30398  99.7478 152.1832 0179757 208.4510 305.5244 13.75461754550823
Source of the keplerian elements: AFSPC